FENGYUN 1C DEB, 31056

Orbit data source: Space-Track

FENGYUN 1C DEB, 31056 is space debris in SSO originally from a launch on Mon, 10 May 1999 UTC launched from the Taiyaun Space Center, China (TSC). Fengyun 1C debris stems from the Chinese weather satellite Fengyun-1C, which was intentionally destroyed by a Chinese anti-satellite missile in 2007. This event dramatically increased the amount of space debris, with thousands of trackable fragments posing hazards to satellites and human spaceflight. The Fengyun 1C debris cloud has become a focal point in discussions about space sustainability and the need for international regulations to prevent the creation of new debris.

Loading next visibility...
Identifier
31056, 1999-025BFA
Orbit
SSO
Country
Flag of CNCN / PRC
Related business
Manufacturer
Unknown
Mission
Spacecraft
Bus & Motor
Unknown
Mass
Unknown
Launch date (UTC)
1999-05-10 (27 years ago)
Launch vehicle
Unknown
Launch site
Taiyaun Space Center, China (TSC)
Object type
Payload
Rocket body
Debris
Shape & HBR
Unknown shape, 0.1 m
Radar Cross Section
Small (<0.1 m²)

Expand to show TLE details & history
Last TLE update: 1 day ago

TLE from 1 day ago
0 FENGYUN 1C DEB
1 31056U 99025BFA 26171.42608787  .00000345  00000-0  20130-3 0  9990
2 31056  98.6859 153.6539 0025982 155.3875 357.0963 14.14560615994990
Epoch: 2026-06-20T10:13Z
TLE epoch observation values (Epoch: 2026-06-20T10:13:33.991Z)
Latitude
27.22925°
Longitude
-83.89378°
Altitude
828.383 km
Speed
7.451 km/s
True Right ascension
22h 32m 33s
True Declination
27° 05' 27"
Sunlit
Object was in daylight at epoch
Visualization orbit readout
Latitude
Unknown
Longitude
Unknown
Altitude
Unknown
Speed
Unknown
Apparent Right ascension
Unknown
Apparent Declination
Unknown
Sunlit
N/A
Visualization observer readout
Local Sidereal Time
05:09:00
Azimuth
Unknown
Elevation
Unknown
Doppler factor
Unknown
Orbital elements
Apogee altitude
859.729 km
Perigee altitude
822.215 km
Semi-major axis
7,219.109 km
Eccentricity
0.0026
Inclination
98.6859°
RAAN
153.6539°
Arg. of periapsis
155.3875°
True anomaly
357.08117°
Mean anomaly
357.0963°
Eccentric anomaly
357.08874°
Mean motion
3.53849 °/min
Orbital period
101.74 mins
BSTAR
0.0002013
Loading maneuver chart data...
Computing Atmospheric mass density...

Documentation

Showing up to 5 results
|